Location: Jangalapalle
(16.8036°N, 80.6370°E)
Time: 11:13:31
(UTC+00:00)

Cosmos 2278 Rocket - Pass Details

Date: 05 August 2024
Orbit: 841 x 844 km, 71.0° (Epoch: 08 September)

Event Time Altitude Azimuth Distance (km) Brightness Sun altitude
Rises 23:37:52 0° 332° (NNW) 3,391 5.3 -10.1°
Reaches altitude 10° 23:40:25 10° 325° (NW) 2,455 4.5 -9.6°
Maximum altitude 23:45:41 42° 256° (WSW) 1,186 2.5 -8.4°
Drops below altitude 10° 23:50:57 10° 187° (S) 2,453 4.4 -7.2°
Sets 23:53:31 0° 180° (S) 3,387 5.1 -6.6°
